When you browse on this site, cookies collect data to enhance your experience and personalize the content and advertising you see.
Visit our Privacy Policy to learn more. By continuing to use the site, you agree to this use of cookies and data.
  • In Sweden
  • List of Countries
  • For 7 days
  • Water Temperature
  • Satellite Maps
  • Weather Map
  • Weather Widgets
  • user-avatar
    Login

    Hourly Weather Gabrovo

    Today, 10 December, Monday

    Time Temperature Precipitation Wind Pressure Humidity
    00:00 +2°C° 0 mm 1 mps 694 mmHg 79%
    01:00 +2°C° 0 mm 1 mps 694 mmHg 79%
    02:00 +2°C° 0 mm 1 mps 693 mmHg 76%
    03:00 +2°C° 0 mm 1 mps 693 mmHg 76%
    04:00 +1°C° 0 mm 1 mps 693 mmHg 75%
    05:00 +1°C° 0 mm 1 mps 693 mmHg 74%
    06:00 +1°C° 0 mm 1 mps 693 mmHg 74%
    07:00 +1°C° 0 mm 1 mps 693 mmHg 73%
    08:00 +2°C° 0 mm 1 mps 693 mmHg 70%
    09:00 +3°C° 0.1 mm 1 mps 693 mmHg 67%
    10:00 +4°C° 0.1 mm 1 mps 694 mmHg 64%
    11:00 +5°C° 0.1 mm 1 mps 694 mmHg 61%
    12:00 +4°C° 0.1 mm 2 mps 694 mmHg 63%
    13:00 +4°C° 0.1 mm 2 mps 694 mmHg 65%
    14:00 +3°C° 0.1 mm 3 mps 694 mmHg 67%
    15:00 +3°C° 0.1 mm 3 mps 694 mmHg 71%
    16:00 +2°C° 0.1 mm 3 mps 693 mmHg 75%
    17:00 +1°C° 0.1 mm 3 mps 693 mmHg 79%
    18:00 +1°C° 0.1 mm 3 mps 694 mmHg 79%
    19:00 0°C° 0.1 mm 4 mps 694 mmHg 79%
    20:00 0°C° 0.1 mm 4 mps 694 mmHg 80%
    21:00 0°C° 0.1 mm 4 mps 694 mmHg 78%
    22:00 -1°C° 0.1 mm 4 mps 695 mmHg 76%
    23:00 -1°C° 0.1 mm 5 mps 695 mmHg 74%

    Tomorrow, 11 December, Tuesday

    Time Temperature Precipitation Wind Pressure Humidity
    00:00 -1°C° 0 mm 5 mps 695 mmHg 74%
    01:00 -1°C° 0 mm 4 mps 695 mmHg 74%
    02:00 -2°C° 0 mm 4 mps 695 mmHg 74%
    03:00 -2°C° 0 mm 4 mps 695 mmHg 74%
    04:00 -3°C° 0 mm 4 mps 695 mmHg 74%
    05:00 -3°C° 0 mm 4 mps 695 mmHg 74%
    06:00 -2°C° 0 mm 3 mps 696 mmHg 74%
    07:00 -2°C° 0 mm 3 mps 696 mmHg 74%
    08:00 -4°C° 0 mm 3 mps 696 mmHg 74%
    09:00 -1°C° 0 mm 3 mps 697 mmHg 68%
    10:00 -1°C° 0 mm 4 mps 697 mmHg 63%
    11:00 0°C° 0 mm 4 mps 698 mmHg 58%
    12:00 0°C° 0 mm 4 mps 698 mmHg 56%
    13:00 +1°C° 0 mm 4 mps 698 mmHg 55%
    14:00 +1°C° 0 mm 4 mps 698 mmHg 53%
    15:00 +1°C° 0 mm 3 mps 698 mmHg 57%
    16:00 0°C° 0 mm 3 mps 698 mmHg 61%
    17:00 -1°C° 0 mm 2 mps 698 mmHg 65%
    18:00 -1°C° 0 mm 2 mps 698 mmHg 67%
    19:00 -2°C° 0 mm 2 mps 698 mmHg 69%
    20:00 -3°C° 0 mm 2 mps 699 mmHg 71%
    21:00 -3°C° 0 mm 2 mps 699 mmHg 71%
    22:00 -3°C° 0 mm 2 mps 699 mmHg 71%
    23:00 -3°C° 0 mm 2 mps 699 mmHg 71%

    Day after tomorrow, 12 December, Wednesday

    Time Temperature Precipitation Wind Pressure Humidity
    00:00 -4°C° 0 mm 2 mps 699 mmHg 70%
    01:00 -4°C° 0 mm 2 mps 699 mmHg 70%
    02:00 -4°C° 0 mm 2 mps 699 mmHg 70%
    03:00 -4°C° 0 mm 2 mps 699 mmHg 70%
    04:00 -4°C° 0 mm 2 mps 699 mmHg 70%
    05:00 -4°C° 0 mm 2 mps 699 mmHg 70%
    06:00 -4°C° 0 mm 2 mps 699 mmHg 70%
    07:00 -3°C° 0 mm 2 mps 700 mmHg 70%
    08:00 -3°C° 0 mm 2 mps 700 mmHg 70%
    09:00 -2°C° 0 mm 3 mps 700 mmHg 65%
    10:00 -1°C° 0 mm 3 mps 701 mmHg 60%
    11:00 -1°C° 0 mm 4 mps 701 mmHg 55%
    12:00 0°C° 0 mm 4 mps 701 mmHg 53%
    13:00 +1°C° 0 mm 4 mps 701 mmHg 51%
    14:00 +1°C° 0 mm 4 mps 701 mmHg 49%
    15:00 +1°C° 0 mm 3 mps 701 mmHg 54%
    16:00 +1°C° 0 mm 2 mps 701 mmHg 59%
    17:00 -2°C° 0 mm 2 mps 701 mmHg 64%
    18:00 -2°C° 0 mm 2 mps 701 mmHg 65%
    19:00 -2°C° 0 mm 2 mps 701 mmHg 66%
    20:00 -3°C° 0 mm 2 mps 701 mmHg 68%
    21:00 -3°C° 0 mm 2 mps 701 mmHg 68%
    22:00 -3°C° 0 mm 2 mps 702 mmHg 67%
    23:00 -3°C° 0 mm 2 mps 702 mmHg 67%

    13 December, Thursday

    Time Temperature Precipitation Wind Pressure Humidity
    00:00 -3°C° 0 mm 2 mps 702 mmHg 66%
    01:00 -3°C° 0 mm 2 mps 702 mmHg 65%
    02:00 -3°C° 0 mm 2 mps 701 mmHg 65%
    03:00 -1°C° 0 mm 1 mps 701 mmHg 64%
    04:00 -1°C° 0 mm 1 mps 701 mmHg 63%
    05:00 -1°C° 0 mm 1 mps 701 mmHg 62%
    06:00 -1°C° 0 mm 1 mps 701 mmHg 60%
    07:00 -1°C° 0 mm 1 mps 701 mmHg 59%
    08:00 -1°C° 0 mm 1 mps 701 mmHg 58%
    09:00 0°C° 0 mm 1 mps 701 mmHg 53%
    10:00 +1°C° 0 mm 1 mps 701 mmHg 49%
    11:00 +3°C° 0 mm 1 mps 701 mmHg 44%
    12:00 +3°C° 0 mm 1 mps 701 mmHg 44%
    13:00 +3°C° 0 mm 1 mps 700 mmHg 44%
    14:00 +4°C° 0 mm 1 mps 700 mmHg 44%
    15:00 +3°C° 0.1 mm 1 mps 699 mmHg 50%
    16:00 +2°C° 0.1 mm 1 mps 699 mmHg 56%
    17:00 +1°C° 0.1 mm 1 mps 699 mmHg 62%
    18:00 +1°C° 0.9 mm 1 mps 699 mmHg 69%
    19:00 0°C° 0.9 mm 1 mps 699 mmHg 77%
    20:00 0°C° 0.9 mm 1 mps 699 mmHg 85%
    21:00 0°C° 0.6 mm 1 mps 699 mmHg 86%
    22:00 0°C° 0.6 mm 1 mps 699 mmHg 87%
    23:00 0°C° 0.6 mm 1 mps 699 mmHg 88%

    14 December, Friday

    Time Temperature Precipitation Wind Pressure Humidity
    00:00 0°C° 0 mm 1 mps 700 mmHg 88%
    01:00 0°C° 0 mm 1 mps 700 mmHg 88%
    02:00 -1°C° 0 mm 1 mps 700 mmHg 87%
    03:00 -1°C° 0 mm 1 mps 700 mmHg 86%
    04:00 -1°C° 0 mm 1 mps 700 mmHg 85%
    05:00 -2°C° 0 mm 1 mps 701 mmHg 84%
    06:00 -2°C° 0 mm 1 mps 701 mmHg 83%
    07:00 -2°C° 0 mm 1 mps 702 mmHg 81%
    08:00 -1°C° 0 mm 1 mps 702 mmHg 80%
    09:00 0°C° 0 mm 1 mps 703 mmHg 78%
    10:00 +1°C° 0 mm 1 mps 704 mmHg 76%
    11:00 +2°C° 0 mm 0 mps 705 mmHg 74%
    12:00 +3°C° 0 mm 1 mps 705 mmHg 74%
    13:00 +3°C° 0 mm 1 mps 705 mmHg 74%
    14:00 +4°C° 0 mm 1 mps 705 mmHg 74%
    15:00 +3°C° 0 mm 1 mps 705 mmHg 77%
    16:00 +2°C° 0 mm 1 mps 705 mmHg 81%
    17:00 +1°C° 0 mm 1 mps 705 mmHg 85%
    18:00 0°C° 0 mm 1 mps 706 mmHg 85%
    19:00 0°C° 0 mm 1 mps 706 mmHg 86%
    20:00 0°C° 0 mm 1 mps 706 mmHg 86%
    21:00 0°C° 0 mm 1 mps 707 mmHg 87%
    22:00 0°C° 0 mm 1 mps 707 mmHg 87%
    23:00 0°C° 0 mm 1 mps 707 mmHg 88%

    15 December, Saturday

    Time Temperature Precipitation Wind Pressure Humidity
    00:00 -1°C° 0 mm 1 mps 707 mmHg 88%
    01:00 -1°C° 0 mm 1 mps 707 mmHg 89%
    02:00 -1°C° 0 mm 1 mps 707 mmHg 89%
    03:00 -1°C° 0 mm 1 mps 707 mmHg 90%
    04:00 -1°C° 0 mm 1 mps 708 mmHg 90%
    05:00 -1°C° 0 mm 1 mps 708 mmHg 90%
    06:00 -2°C° 0 mm 0 mps 708 mmHg 90%
    07:00 -2°C° 0 mm 0 mps 708 mmHg 90%
    08:00 -1°C° 0 mm 0 mps 709 mmHg 91%
    09:00 0°C° 0 mm 0 mps 709 mmHg 88%
    10:00 +2°C° 0 mm 1 mps 710 mmHg 86%
    11:00 +3°C° 0 mm 1 mps 710 mmHg 84%
    12:00 +3°C° 0 mm 1 mps 710 mmHg 84%
    13:00 +3°C° 0 mm 1 mps 710 mmHg 83%
    14:00 +4°C° 0 mm 1 mps 709 mmHg 83%
    15:00 +3°C° 0 mm 1 mps 709 mmHg 86%
    16:00 +2°C° 0 mm 1 mps 709 mmHg 89%
    17:00 +1°C° 0 mm 1 mps 709 mmHg 92%
    18:00 +1°C° 0 mm 1 mps 710 mmHg 92%
    19:00 +1°C° 0 mm 1 mps 710 mmHg 92%
    20:00 +1°C° 0 mm 1 mps 710 mmHg 92%
    21:00 0°C° 0 mm 0 mps 710 mmHg 92%
    22:00 0°C° 0 mm 0 mps 710 mmHg 92%
    23:00 0°C° 0 mm 0 mps 710 mmHg 92%
    Show more